Location: Unspecified
(0.0000°N, 0.0000°E)
Time: 08:53:40
(UTC+00:00)

ATLAS 5 CENTAUR DEB - Pass Details

Date: 21 December 2025
Orbit: 8806 x 35657 km, 13.3° (Epoch: 18 January)

Event Time Altitude Azimuth Distance (km) Brightness Sun altitude
Rises 19:24:02 0° 255° (WSW) 13,895 ? -19.6°
Reaches altitude 10° 19:32:37 10° 254° (WSW) 12,711 ? -21.5°
Maximum altitude 05:22:36 66° 61° (ENE) 29,165 ? -8.2°
Drops below altitude 10° 08:11:14 10° 100° (E) 15,373 ? 30.1°
Sets 08:21:14 0° 101° (E) 15,465 ? 32.3°
